TimeCST,TemperatureF,Dew PointF,Humidity,Sea Level PressureIn,VisibilityMPH,Wind Direction,Wind SpeedMPH,Gust SpeedMPH,PrecipitationIn,Events,Conditions,WindDirDegrees,DateUTC
12:12 AM,10.4,8.6,92,30.47,10.0,Calm,Calm,-,N/A,,Clear,0,2013-11-29 06:12:00
12:33 AM,10.4,8.6,92,30.47,10.0,Calm,Calm,-,N/A,,Clear,0,2013-11-29 06:33:00
12:53 AM,10.4,6.8,85,30.47,10.0,Calm,Calm,-,N/A,,Clear,0,2013-11-29 06:53:00
1:12 AM,10.4,6.8,85,30.47,10.0,Calm,Calm,-,N/A,,Clear,0,2013-11-29 07:12:00
1:33 AM,8.6,6.8,92,30.47,10.0,Calm,Calm,-,N/A,,Clear,0,2013-11-29 07:33:00
1:53 AM,8.6,6.8,92,30.47,10.0,Calm,Calm,-,N/A,,Clear,0,2013-11-29 07:53:00
2:12 AM,8.6,6.8,92,30.48,-9999.0,Calm,Calm,-,N/A,,Unknown,0,2013-11-29 08:12:00
2:33 AM,8.6,6.8,92,30.48,-9999.0,Calm,Calm,-,N/A,,Unknown,0,2013-11-29 08:33:00
2:53 AM,8.6,5.0,85,30.47,-9999.0,Calm,Calm,-,N/A,,Unknown,0,2013-11-29 08:53:00
3:12 AM,8.6,5.0,85,30.47,-9999.0,Calm,Calm,-,N/A,,Unknown,0,2013-11-29 09:12:00
3:33 AM,8.6,5.0,85,30.47,-9999.0,Calm,Calm,-,N/A,,Unknown,0,2013-11-29 09:33:00
3:53 AM,8.6,6.8,92,30.47,-9999.0,Calm,Calm,-,N/A,,Unknown,0,2013-11-29 09:53:00
4:12 AM,8.6,6.8,92,30.47,-9999.0,Calm,Calm,-,N/A,,Unknown,0,2013-11-29 10:12:00
4:33 AM,8.6,6.8,92,30.46,-9999.0,Calm,Calm,-,N/A,,Unknown,0,2013-11-29 10:33:00
4:53 AM,8.6,6.8,92,30.47,-9999.0,Calm,Calm,-,N/A,,Unknown,0,2013-11-29 10:53:00
5:12 AM,8.6,6.8,92,30.46,-9999.0,Calm,Calm,-,N/A,,Unknown,0,2013-11-29 11:12:00
5:33 AM,10.4,8.6,92,30.46,-9999.0,Calm,Calm,-,N/A,,Unknown,0,2013-11-29 11:33:00
5:53 AM,10.4,8.6,92,30.47,-9999.0,Calm,Calm,-,N/A,,Unknown,0,2013-11-29 11:53:00
6:12 AM,10.4,6.8,85,30.47,-9999.0,Calm,Calm,-,N/A,,Unknown,0,2013-11-29 12:12:00
6:33 AM,10.4,8.6,92,30.47,-9999.0,Calm,Calm,-,N/A,,Unknown,0,2013-11-29 12:33:00
6:52 AM,10.4,8.6,92,30.47,-9999.0,SSE,3.5,-,N/A,,Unknown,160,2013-11-29 12:52:00
7:13 AM,12.2,10.4,92,30.47,-9999.0,SSE,4.6,-,N/A,,Unknown,150,2013-11-29 13:13:00
7:33 AM,12.2,8.6,85,30.46,-9999.0,SSE,5.8,-,N/A,,Unknown,150,2013-11-29 13:33:00
7:52 AM,15.8,12.2,86,30.46,-9999.0,SSE,6.9,-,N/A,,Unknown,160,2013-11-29 13:52:00
8:13 AM,15.8,12.2,86,30.46,-9999.0,SSE,8.1,-,N/A,,Unknown,160,2013-11-29 14:13:00
8:32 AM,17.6,14.0,86,30.46,10.0,SSE,8.1,-,N/A,,Clear,160,2013-11-29 14:32:00
8:53 AM,19.4,15.8,86,30.46,10.0,SSE,6.9,-,N/A,,Clear,160,2013-11-29 14:53:00
9:13 AM,19.4,15.8,86,30.45,10.0,South,6.9,-,N/A,,Clear,170,2013-11-29 15:13:00
9:32 AM,21.2,15.8,80,30.45,10.0,South,10.4,-,N/A,,Clear,180,2013-11-29 15:32:00
9:53 AM,23.0,17.6,80,30.45,10.0,South,9.2,-,N/A,,Clear,180,2013-11-29 15:53:00
10:13 AM,24.8,17.6,74,30.45,10.0,South,9.2,-,N/A,,Clear,190,2013-11-29 16:13:00
10:32 AM,24.8,15.8,69,30.45,10.0,South,9.2,-,N/A,,Clear,190,2013-11-29 16:32:00
10:53 AM,26.6,17.6,69,30.44,10.0,South,8.1,-,N/A,,Clear,180,2013-11-29 16:53:00
11:13 AM,28.4,17.6,64,30.42,10.0,South,12.7,-,N/A,,Clear,170,2013-11-29 17:13:00
11:32 AM,30.2,17.6,60,30.41,-9999.0,South,11.5,-,N/A,,Unknown,170,2013-11-29 17:32:00
11:53 AM,28.4,17.6,64,30.40,10.0,South,11.5,17.3,N/A,,Clear,170,2013-11-29 17:53:00
12:13 PM,30.2,17.6,60,30.38,10.0,South,8.1,-,N/A,,Clear,180,2013-11-29 18:13:00
12:32 PM,30.2,17.6,60,30.37,10.0,South,10.4,18.4,N/A,,Clear,190,2013-11-29 18:32:00
12:53 PM,30.2,17.6,60,30.36,10.0,South,13.8,17.3,N/A,,Clear,170,2013-11-29 18:53:00
1:13 PM,32.0,17.6,55,30.34,10.0,South,11.5,19.6,N/A,,Clear,180,2013-11-29 19:13:00
1:32 PM,33.8,17.6,52,30.33,10.0,SSE,15.0,21.9,N/A,,Clear,160,2013-11-29 19:32:00
1:53 PM,32.0,17.6,55,30.32,10.0,SSE,16.1,21.9,N/A,,Clear,160,2013-11-29 19:53:00
2:13 PM,33.8,17.6,52,30.31,10.0,South,16.1,20.7,N/A,,Clear,170,2013-11-29 20:13:00
2:32 PM,33.8,17.6,52,30.30,10.0,South,18.4,-,N/A,,Clear,170,2013-11-29 20:32:00
2:53 PM,32.0,17.6,55,30.29,10.0,SSE,15.0,23.0,N/A,,Clear,160,2013-11-29 20:53:00
3:12 PM,33.8,17.6,52,30.29,10.0,South,18.4,-,N/A,,Clear,170,2013-11-29 21:12:00
3:33 PM,32.0,17.6,55,30.28,10.0,SSE,16.1,23.0,N/A,,Clear,160,2013-11-29 21:33:00
3:53 PM,30.2,17.6,60,30.28,10.0,South,10.4,17.3,N/A,,Clear,170,2013-11-29 21:53:00
4:12 PM,30.2,19.4,64,30.27,10.0,SSE,15.0,23.0,N/A,,Clear,160,2013-11-29 22:12:00
4:33 PM,28.4,19.4,69,30.26,10.0,SSE,15.0,19.6,N/A,,Clear,160,2013-11-29 22:33:00
4:52 PM,28.4,19.4,69,30.25,10.0,SSE,15.0,21.9,N/A,,Clear,160,2013-11-29 22:52:00
5:13 PM,28.4,19.4,69,30.24,10.0,SSE,15.0,-,N/A,,Clear,150,2013-11-29 23:13:00
5:32 PM,28.4,21.2,74,30.22,10.0,SSE,17.3,23.0,N/A,,Clear,150,2013-11-29 23:32:00
5:53 PM,28.4,21.2,74,30.21,10.0,SSE,16.1,24.2,N/A,,Clear,160,2013-11-29 23:53:00
6:12 PM,28.4,21.2,74,30.21,10.0,SSE,15.0,24.2,N/A,,Clear,150,2013-11-30 00:12:00
6:33 PM,28.4,21.2,74,30.21,10.0,SSE,16.1,23.0,N/A,,Clear,150,2013-11-30 00:33:00
6:52 PM,28.4,21.2,74,30.20,10.0,SSE,16.1,21.9,N/A,,Clear,160,2013-11-30 00:52:00
7:12 PM,28.4,21.2,74,30.19,10.0,SSE,16.1,25.3,N/A,,Clear,160,2013-11-30 01:12:00
7:33 PM,28.4,21.2,74,30.19,10.0,SSE,15.0,23.0,N/A,,Clear,160,2013-11-30 01:33:00
7:53 PM,28.4,21.2,74,30.19,10.0,SSE,17.3,26.5,N/A,,Clear,160,2013-11-30 01:53:00
8:12 PM,28.4,21.2,74,30.19,10.0,SSE,17.3,20.7,N/A,,Clear,160,2013-11-30 02:12:00
8:33 PM,28.4,21.2,74,30.18,10.0,SSE,16.1,23.0,N/A,,Clear,160,2013-11-30 02:33:00
8:52 PM,28.4,21.2,74,30.18,10.0,South,13.8,20.7,N/A,,Clear,170,2013-11-30 02:52:00
9:13 PM,28.4,21.2,74,30.19,10.0,South,13.8,20.7,N/A,,Clear,170,2013-11-30 03:13:00
9:33 PM,28.4,21.2,74,30.18,10.0,South,11.5,-,N/A,,Clear,170,2013-11-30 03:33:00
9:52 PM,28.4,21.2,74,30.17,10.0,South,12.7,18.4,N/A,,Clear,170,2013-11-30 03:52:00
10:12 PM,28.4,21.2,74,30.17,10.0,South,12.7,18.4,N/A,,Clear,170,2013-11-30 04:12:00
10:33 PM,28.4,21.2,74,30.16,10.0,South,12.7,17.3,N/A,,Clear,170,2013-11-30 04:33:00
10:52 PM,28.4,21.2,74,30.15,10.0,South,13.8,18.4,N/A,,Clear,170,2013-11-30 04:52:00
11:12 PM,28.4,21.2,74,30.14,10.0,South,11.5,18.4,N/A,,Clear,170,2013-11-30 05:12:00
11:33 PM,30.2,21.2,69,30.14,10.0,South,15.0,20.7,N/A,,Clear,170,2013-11-30 05:33:00
11:53 PM,30.2,23.0,75,30.13,10.0,South,11.5,19.6,N/A,,Clear,180,2013-11-30 05:53:00